Location: Napa Junction
(38.1874°N, 122.2508°W)
Time: 11:46:04
(UTC+00:00)

CENTAUR R/B - Pass Details

Date: 19 December 2025
Orbit: 630 x 1550 km, 63.4° (Epoch: 20 January)

Event Time Altitude Azimuth Distance (km) Brightness Sun altitude
Rises 04:50:09 0° 331° (NNW) 4,188 6.1 -46.0°
Reaches altitude 10° 04:53:01 10° 338° (NNW) 3,339 5.5 -46.5°
Enters shadow 04:53:52 13° 341° (NNW) 3,107 5.2 -46.7°
